EROS B

Last updated on Fri Feb 06 2026 00:02:32 GMT+0000 (Coordinated Universal Time)

1 29079U 06014A 26036.62389918 .16492175 25042-5 34625-3 0 9997 2 29079 97.3179 162.1754 0012048 287.7254 72.2733 16.46015569 99499

Satellite not in orbit

EROS B